Wetterdaten: Donnerstag, 18.02.2016
Datum Zeit Temperatur Luftfeuchte Luftdruck Regen Wind Richtung Richtung Sonnenschein ET UV Solar Taupunkt Windchill Windben
18.02.2016 00:00 0,7 C 83 % 1015,2 hPa 0,0 l/m 0,0 km/h (0 Bft) NO 36 0 min 0,000 mm 0,0 UV-I 0 W/m -1,8 C 0,7 C 0,0 km/h (0 Bft)
18.02.2016 00:05 0,6 C 83 % 1015,2 hPa 0,0 l/m 0,0 km/h (0 Bft) NO 36 0 min 0,000 mm 0,0 UV-I 0 W/m -1,9 C 0,6 C 0,0 km/h (0 Bft)
18.02.2016 00:10 0,6 C 83 % 1015,2 hPa 0,0 l/m 0,0 km/h (0 Bft) NO 36 0 min 0,000 mm 0,0 UV-I 0 W/m -1,9 C 0,6 C 0,0 km/h (0 Bft)
18.02.2016 00:15 0,7 C 82 % 1015,2 hPa 0,0 l/m 0,0 km/h (0 Bft) NO 36 0 min 0,000 mm 0,0 UV-I 0 W/m -2,0 C 0,7 C 0,0 km/h (0 Bft)
18.02.2016 00:20 0,7 C 82 % 1015,3 hPa 0,0 l/m 0,0 km/h (0 Bft) NO 36 0 min 0,000 mm 0,0 UV-I 0 W/m -2,0 C 0,7 C 0,0 km/h (0 Bft)
18.02.2016 00:25 0,7 C 82 % 1015,3 hPa 0,0 l/m 0,0 km/h (0 Bft) NO 36 0 min 0,000 mm 0,0 UV-I 0 W/m -2,0 C 0,7 C 0,0 km/h (0 Bft)
18.02.2016 00:30 0,7 C 82 % 1015,3 hPa 0,0 l/m 0,0 km/h (0 Bft) NO 36 0 min 0,000 mm 0,0 UV-I 0 W/m -2,0 C 0,7 C 0,0 km/h (0 Bft)
18.02.2016 00:35 0,7 C 83 % 1015,4 hPa 0,0 l/m 0,0 km/h (0 Bft) NO 36 0 min 0,000 mm 0,0 UV-I 0 W/m -1,8 C 0,7 C 0,0 km/h (0 Bft)
18.02.2016 00:40 0,7 C 83 % 1015,4 hPa 0,0 l/m 0,0 km/h (0 Bft) NO 36 0 min 0,000 mm 0,0 UV-I 0 W/m -1,8 C 0,7 C 0,0 km/h (0 Bft)
18.02.2016 00:45 0,7 C 83 % 1015,3 hPa 0,0 l/m 0,0 km/h (0 Bft) NO 36 0 min 0,000 mm 0,0 UV-I 0 W/m -1,8 C 0,7 C 0,0 km/h (0 Bft)
18.02.2016 00:50 0,8 C 83 % 1015,4 hPa 0,0 l/m 0,0 km/h (0 Bft) NO 36 0 min 0,000 mm 0,0 UV-I 0 W/m -1,8 C 0,8 C 0,0 km/h (0 Bft)
18.02.2016 00:55 0,8 C 83 % 1015,3 hPa 0,0 l/m 0,0 km/h (0 Bft) NO 37 0 min 0,000 mm 0,0 UV-I 0 W/m -1,8 C 0,8 C 1,6 km/h (1 Bft)
18.02.2016 01:00 0,8 C 83 % 1015,3 hPa 0,0 l/m 0,0 km/h (0 Bft) S 173 0 min 0,000 mm 0,0 UV-I 0 W/m -1,8 C 0,8 C 0,0 km/h (0 Bft)
18.02.2016 01:05 0,8 C 83 % 1015,3 hPa 0,0 l/m 0,0 km/h (0 Bft) S 173 0 min 0,000 mm 0,0 UV-I 0 W/m -1,8 C 0,8 C 0,0 km/h (0 Bft)
18.02.2016 01:10 0,9 C 83 % 1015,4 hPa 0,0 l/m 0,2 km/h (0 Bft) SO 137 0 min 0,000 mm 0,0 UV-I 0 W/m -1,7 C 0,9 C 3,2 km/h (1 Bft)
18.02.2016 01:15 0,9 C 83 % 1015,4 hPa 0,0 l/m 1,9 km/h (1 Bft) S-SO 155 0 min 0,000 mm 0,0 UV-I 0 W/m -1,7 C 0,9 C 8,0 km/h (2 Bft)
18.02.2016 01:20 0,9 C 83 % 1015,3 hPa 0,0 l/m 1,1 km/h (1 Bft) S 178 0 min 0,000 mm 0,0 UV-I 0 W/m -1,7 C 0,9 C 3,2 km/h (1 Bft)
18.02.2016 01:25 0,9 C 83 % 1015,3 hPa 0,0 l/m 0,8 km/h (0 Bft) O-SO 121 0 min 0,000 mm 0,0 UV-I 0 W/m -1,7 C 0,9 C 6,4 km/h (2 Bft)
18.02.2016 01:30 0,9 C 83 % 1015,3 hPa 0,0 l/m 1,6 km/h (1 Bft) SO 145 0 min 0,000 mm 0,0 UV-I 0 W/m -1,7 C 0,9 C 4,8 km/h (1 Bft)
18.02.2016 01:35 0,9 C 84 % 1015,3 hPa 0,0 l/m 2,0 km/h (1 Bft) SO 140 0 min 0,000 mm 0,0 UV-I 0 W/m -1,5 C 0,9 C 4,8 km/h (1 Bft)
18.02.2016 01:40 0,9 C 84 % 1015,3 hPa 0,0 l/m 1,1 km/h (1 Bft) S-SO 148 0 min 0,000 mm 0,0 UV-I 0 W/m -1,5 C 0,9 C 6,4 km/h (2 Bft)
18.02.2016 01:45 0,9 C 85 % 1015,3 hPa 0,0 l/m 2,0 km/h (1 Bft) S-SO 168 0 min 0,000 mm 0,0 UV-I 0 W/m -1,3 C 0,9 C 8,0 km/h (2 Bft)
18.02.2016 01:50 0,9 C 85 % 1015,3 hPa 0,0 l/m 2,9 km/h (1 Bft) SO 141 0 min 0,000 mm 0,0 UV-I 0 W/m -1,3 C 0,9 C 9,7 km/h (2 Bft)
18.02.2016 01:55 0,9 C 85 % 1015,3 hPa 0,0 l/m 3,0 km/h (1 Bft) S-SO 168 0 min 0,000 mm 0,0 UV-I 0 W/m -1,3 C 0,9 C 9,7 km/h (2 Bft)
18.02.2016 02:00 0,9 C 85 % 1015,3 hPa 0,0 l/m 0,6 km/h (0 Bft) S 176 0 min 0,000 mm 0,0 UV-I 0 W/m -1,3 C 0,9 C 6,4 km/h (2 Bft)
18.02.2016 02:05 0,9 C 85 % 1015,3 hPa 0,0 l/m 0,4 km/h (0 Bft) O-SO 115 0 min 0,000 mm 0,0 UV-I 0 W/m -1,3 C 0,9 C 4,8 km/h (1 Bft)
18.02.2016 02:10 0,9 C 85 % 1015,3 hPa 0,0 l/m 2,2 km/h (1 Bft) S 187 0 min 0,000 mm 0,0 UV-I 0 W/m -1,3 C 0,9 C 8,0 km/h (2 Bft)
18.02.2016 02:15 0,9 C 86 % 1015,3 hPa 0,0 l/m 0,7 km/h (0 Bft) S 177 0 min 0,000 mm 0,0 UV-I 0 W/m -1,2 C 0,9 C 4,8 km/h (1 Bft)
18.02.2016 02:20 0,9 C 86 % 1015,3 hPa 0,0 l/m 0,6 km/h (0 Bft) S-SO 157 0 min 0,000 mm 0,0 UV-I 0 W/m -1,2 C 0,9 C 3,2 km/h (1 Bft)
18.02.2016 02:25 0,9 C 86 % 1015,3 hPa 0,0 l/m 1,7 km/h (1 Bft) S-SO 157 0 min 0,000 mm 0,0 UV-I 0 W/m -1,2 C 0,9 C 8,0 km/h (2 Bft)
18.02.2016 02:30 0,9 C 86 % 1015,2 hPa 0,0 l/m 2,1 km/h (1 Bft) O-SO 104 0 min 0,000 mm 0,0 UV-I 0 W/m -1,2 C 0,9 C 9,7 km/h (2 Bft)
18.02.2016 02:35 0,9 C 86 % 1015,2 hPa 0,0 l/m 0,1 km/h (0 Bft) S-SO 148 0 min 0,000 mm 0,0 UV-I 0 W/m -1,2 C 0,9 C 3,2 km/h (1 Bft)
18.02.2016 02:40 0,9 C 87 % 1015,1 hPa 0,0 l/m 2,0 km/h (1 Bft) S-SO 167 0 min 0,000 mm 0,0 UV-I 0 W/m -1,0 C 0,9 C 11,3 km/h (2 Bft)
18.02.2016 02:45 0,9 C 87 % 1015,1 hPa 0,0 l/m 0,0 km/h (0 Bft) S 190 0 min 0,000 mm 0,0 UV-I 0 W/m -1,0 C 0,9 C 0,0 km/h (0 Bft)
18.02.2016 02:50 0,9 C 87 % 1015,1 hPa 0,0 l/m 0,1 km/h (0 Bft) S 191 0 min 0,000 mm 0,0 UV-I 0 W/m -1,0 C 0,9 C 3,2 km/h (1 Bft)
18.02.2016 02:55 0,9 C 87 % 1015,1 hPa 0,0 l/m 0,6 km/h (0 Bft) S 188 0 min 0,000 mm 0,0 UV-I 0 W/m -1,0 C 0,9 C 6,4 km/h (2 Bft)
18.02.2016 03:00 0,9 C 87 % 1015,1 hPa 0,0 l/m 0,4 km/h (0 Bft) S-SO 167 0 min 0,000 mm 0,0 UV-I 0 W/m -1,0 C 0,9 C 3,2 km/h (1 Bft)
18.02.2016 03:05 0,9 C 87 % 1015,0 hPa 0,0 l/m 0,8 km/h (0 Bft) S-SW 207 0 min 0,000 mm 0,0 UV-I 0 W/m -1,0 C 0,9 C 3,2 km/h (1 Bft)
18.02.2016 03:10 0,9 C 87 % 1015,0 hPa 0,0 l/m 1,1 km/h (1 Bft) S 189 0 min 0,000 mm 0,0 UV-I 0 W/m -1,0 C 0,9 C 4,8 km/h (1 Bft)
18.02.2016 03:15 0,9 C 87 % 1015,0 hPa 0,0 l/m 0,4 km/h (0 Bft) S 182 0 min 0,000 mm 0,0 UV-I 0 W/m -1,0 C 0,9 C 4,8 km/h (1 Bft)
18.02.2016 03:20 0,9 C 88 % 1014,9 hPa 0,0 l/m 0,0 km/h (0 Bft) S-SO 160 0 min 0,000 mm 0,0 UV-I 0 W/m -0,9 C 0,9 C 1,6 km/h (1 Bft)
18.02.2016 03:25 0,8 C 88 % 1015,0 hPa 0,0 l/m 0,6 km/h (0 Bft) S-SO 157 0 min 0,000 mm 0,0 UV-I 0 W/m -1,0 C 0,8 C 4,8 km/h (1 Bft)
18.02.2016 03:30 0,9 C 88 % 1015,0 hPa 0,0 l/m 0,1 km/h (0 Bft) SO 126 0 min 0,000 mm 0,0 UV-I 0 W/m -0,9 C 0,9 C 3,2 km/h (1 Bft)
18.02.2016 03:35 0,9 C 88 % 1015,0 hPa 0,0 l/m 1,3 km/h (1 Bft) S 173 0 min 0,000 mm 0,0 UV-I 0 W/m -0,9 C 0,9 C 9,7 km/h (2 Bft)
18.02.2016 03:40 0,9 C 88 % 1015,0 hPa 0,0 l/m 0,3 km/h (0 Bft) S-SW 193 0 min 0,000 mm 0,0 UV-I 0 W/m -0,9 C 0,9 C 3,2 km/h (1 Bft)
18.02.2016 03:45 0,9 C 88 % 1015,1 hPa 0,0 l/m 0,6 km/h (0 Bft) S-SW 200 0 min 0,000 mm 0,0 UV-I 0 W/m -0,9 C 0,9 C 4,8 km/h (1 Bft)
18.02.2016 03:50 0,9 C 88 % 1015,0 hPa 0,0 l/m 2,2 km/h (1 Bft) S-SW 201 0 min 0,000 mm 0,0 UV-I 0 W/m -0,9 C 0,9 C 8,0 km/h (2 Bft)
18.02.2016 03:55 0,9 C 88 % 1015,0 hPa 0,0 l/m 2,2 km/h (1 Bft) SW 225 0 min 0,000 mm 0,0 UV-I 0 W/m -0,9 C 0,9 C 6,4 km/h (2 Bft)
18.02.2016 04:00 0,9 C 88 % 1014,9 hPa 0,0 l/m 0,3 km/h (0 Bft) W-SW 240 0 min 0,000 mm 0,0 UV-I 0 W/m -0,9 C 0,9 C 3,2 km/h (1 Bft)
18.02.2016 04:05 0,9 C 88 % 1014,9 hPa 0,0 l/m 1,1 km/h (1 Bft) S-SW 201 0 min 0,000 mm 0,0 UV-I 0 W/m -0,9 C 0,9 C 4,8 km/h (1 Bft)
18.02.2016 04:10 0,9 C 88 % 1014,9 hPa 0,0 l/m 0,0 km/h (0 Bft) S-SW 201 0 min 0,000 mm 0,0 UV-I 0 W/m -0,9 C 0,9 C 0,0 km/h (0 Bft)
18.02.2016 04:15 0,9 C 88 % 1015,0 hPa 0,0 l/m 0,0 km/h (0 Bft) W 260 0 min 0,000 mm 0,0 UV-I 0 W/m -0,9 C 0,9 C 0,0 km/h (0 Bft)
18.02.2016 04:20 0,9 C 88 % 1014,9 hPa 0,0 l/m 0,2 km/h (0 Bft) S-SW 209 0 min 0,000 mm 0,0 UV-I 0 W/m -0,9 C 0,9 C 3,2 km/h (1 Bft)
18.02.2016 04:25 0,9 C 88 % 1014,9 hPa 0,0 l/m 1,0 km/h (0 Bft) SW 233 0 min 0,000 mm 0,0 UV-I 0 W/m -0,9 C 0,9 C 4,8 km/h (1 Bft)
18.02.2016 04:30 0,9 C 87 % 1015,0 hPa 0,0 l/m 0,8 km/h (0 Bft) SW 229 0 min 0,000 mm 0,0 UV-I 0 W/m -1,0 C 0,9 C 4,8 km/h (1 Bft)
18.02.2016 04:35 0,9 C 87 % 1015,0 hPa 0,0 l/m 0,4 km/h (0 Bft) S 176 0 min 0,000 mm 0,0 UV-I 0 W/m -1,0 C 0,9 C 3,2 km/h (1 Bft)
18.02.2016 04:40 0,9 C 88 % 1015,0 hPa 0,0 l/m 0,0 km/h (0 Bft) S 176 0 min 0,000 mm 0,0 UV-I 0 W/m -0,9 C 0,9 C 0,0 km/h (0 Bft)
18.02.2016 04:45 0,9 C 87 % 1015,0 hPa 0,0 l/m 0,0 km/h (0 Bft) S 176 0 min 0,000 mm 0,0 UV-I 0 W/m -1,0 C 0,9 C 0,0 km/h (0 Bft)
18.02.2016 04:50 0,9 C 88 % 1014,9 hPa 0,0 l/m 0,0 km/h (0 Bft) W 267 0 min 0,000 mm 0,0 UV-I 0 W/m -0,9 C 0,9 C 0,0 km/h (0 Bft)
18.02.2016 04:55 0,9 C 87 % 1015,0 hPa 0,0 l/m 0,9 km/h (0 Bft) S-SO 152 0 min 0,000 mm 0,0 UV-I 0 W/m -1,0 C 0,9 C 8,0 km/h (2 Bft)
18.02.2016 05:00 0,9 C 88 % 1015,1 hPa 0,0 l/m 0,0 km/h (0 Bft) W 266 0 min 0,000 mm 0,0 UV-I 0 W/m -0,9 C 0,9 C 0,0 km/h (0 Bft)
18.02.2016 05:05 0,9 C 87 % 1015,0 hPa 0,0 l/m 0,0 km/h (0 Bft) W 266 0 min 0,000 mm 0,0 UV-I 0 W/m -1,0 C 0,9 C 0,0 km/h (0 Bft)
18.02.2016 05:10 0,9 C 87 % 1014,9 hPa 0,0 l/m 0,0 km/h (0 Bft) W 266 0 min 0,000 mm 0,0 UV-I 0 W/m -1,0 C 0,9 C 0,0 km/h (0 Bft)
18.02.2016 05:15 0,9 C 87 % 1015,0 hPa 0,0 l/m 0,0 km/h (0 Bft) W 263 0 min 0,000 mm 0,0 UV-I 0 W/m -1,0 C 0,9 C 0,0 km/h (0 Bft)
18.02.2016 05:20 0,9 C 87 % 1014,9 hPa 0,0 l/m 0,0 km/h (0 Bft) N 355 0 min 0,000 mm 0,0 UV-I 0 W/m -1,0 C 0,9 C 0,0 km/h (0 Bft)
18.02.2016 05:25 0,9 C 87 % 1015,0 hPa 0,0 l/m 0,4 km/h (0 Bft) SO 133 0 min 0,000 mm 0,0 UV-I 0 W/m -1,0 C 0,9 C 3,2 km/h (1 Bft)
18.02.2016 05:30 0,9 C 87 % 1015,0 hPa 0,0 l/m 1,3 km/h (1 Bft) S-SO 156 0 min 0,000 mm 0,0 UV-I 0 W/m -1,0 C 0,9 C 6,4 km/h (2 Bft)
18.02.2016 05:35 0,9 C 87 % 1015,0 hPa 0,0 l/m 0,0 km/h (0 Bft) S 179 0 min 0,000 mm 0,0 UV-I 0 W/m -1,0 C 0,9 C 0,0 km/h (0 Bft)
18.02.2016 05:40 0,9 C 88 % 1015,1 hPa 0,0 l/m 0,0 km/h (0 Bft) S 179 0 min 0,000 mm 0,0 UV-I 0 W/m -0,9 C 0,9 C 0,0 km/h (0 Bft)
18.02.2016 05:45 0,9 C 88 % 1015,1 hPa 0,0 l/m 0,0 km/h (0 Bft) S 179 0 min 0,000 mm 0,0 UV-I 0 W/m -0,9 C 0,9 C 0,0 km/h (0 Bft)
18.02.2016 05:50 0,9 C 88 % 1015,1 hPa 0,0 l/m 0,0 km/h (0 Bft) S 179 0 min 0,000 mm 0,0 UV-I 0 W/m -0,9 C 0,9 C 0,0 km/h (0 Bft)
18.02.2016 05:55 0,9 C 88 % 1015,1 hPa 0,0 l/m 0,0 km/h (0 Bft) S 179 0 min 0,000 mm 0,0 UV-I 0 W/m -0,9 C 0,9 C 0,0 km/h (0 Bft)
18.02.2016 06:00 0,9 C 88 % 1015,1 hPa 0,0 l/m 0,0 km/h (0 Bft) S 181 0 min 0,000 mm 0,0 UV-I 0 W/m -0,9 C 0,9 C 0,0 km/h (0 Bft)
18.02.2016 06:05 0,9 C 88 % 1015,1 hPa 0,0 l/m 1,0 km/h (0 Bft) W-SW 240 0 min 0,000 mm 0,0 UV-I 0 W/m -0,9 C 0,9 C 6,4 km/h (2 Bft)
18.02.2016 06:10 0,9 C 88 % 1015,2 hPa 0,0 l/m 0,0 km/h (0 Bft) SW 214 0 min 0,000 mm 0,0 UV-I 0 W/m -0,9 C 0,9 C 0,0 km/h (0 Bft)
18.02.2016 06:15 0,9 C 88 % 1015,2 hPa 0,0 l/m 0,0 km/h (0 Bft) SW 214 0 min 0,000 mm 0,0 UV-I 0 W/m -0,9 C 0,9 C 0,0 km/h (0 Bft)
18.02.2016 06:20 0,9 C 88 % 1015,2 hPa 0,0 l/m 0,3 km/h (0 Bft) S-SW 211 0 min 0,000 mm 0,0 UV-I 0 W/m -0,9 C 0,9 C 3,2 km/h (1 Bft)
18.02.2016 06:25 0,9 C 88 % 1015,1 hPa 0,0 l/m 0,1 km/h (0 Bft) S 191 0 min 0,000 mm 0,0 UV-I 0 W/m -0,9 C 0,9 C 1,6 km/h (1 Bft)
18.02.2016 06:30 0,8 C 89 % 1015,2 hPa 0,0 l/m 0,1 km/h (0 Bft) W-SW 250 0 min 0,000 mm 0,0 UV-I 0 W/m -0,8 C 0,8 C 1,6 km/h (1 Bft)
18.02.2016 06:35 0,8 C 89 % 1015,2 hPa 0,0 l/m 0,3 km/h (0 Bft) S 172 0 min 0,000 mm 0,0 UV-I 0 W/m -0,8 C 0,8 C 3,2 km/h (1 Bft)
18.02.2016 06:40 0,8 C 89 % 1015,2 hPa 0,0 l/m 0,9 km/h (0 Bft) S-SO 159 0 min 0,000 mm 0,0 UV-I 0 W/m -0,8 C 0,8 C 3,2 km/h (1 Bft)
18.02.2016 06:45 0,8 C 89 % 1015,2 hPa 0,0 l/m 0,0 km/h (0 Bft) S-SO 160 0 min 0,000 mm 0,0 UV-I 0 W/m -0,8 C 0,8 C 1,6 km/h (1 Bft)
18.02.2016 06:50 0,8 C 89 % 1015,2 hPa 0,0 l/m 0,0 km/h (0 Bft) O-SO 107 0 min 0,000 mm 0,0 UV-I 0 W/m -0,8 C 0,8 C 0,0 km/h (0 Bft)
18.02.2016 06:55 0,8 C 89 % 1015,3 hPa 0,0 l/m 0,0 km/h (0 Bft) S-SO 155 0 min 0,000 mm 0,0 UV-I 0 W/m -0,8 C 0,8 C 0,0 km/h (0 Bft)
18.02.2016 07:00 0,7 C 89 % 1015,3 hPa 0,0 l/m 1,3 km/h (1 Bft) SO 130 0 min 0,000 mm 0,0 UV-I 0 W/m -0,9 C 0,7 C 4,8 km/h (1 Bft)
18.02.2016 07:05 0,7 C 89 % 1015,2 hPa 0,0 l/m 2,8 km/h (1 Bft) SO 132 0 min 0,000 mm 0,0 UV-I 0 W/m -0,9 C 0,7 C 8,0 km/h (2 Bft)
18.02.2016 07:10 0,7 C 89 % 1015,2 hPa 0,0 l/m 3,2 km/h (1 Bft) S-SO 156 0 min 0,000 mm 0,0 UV-I 0 W/m -0,9 C 0,7 C 8,0 km/h (2 Bft)
18.02.2016 07:15 0,7 C 89 % 1015,2 hPa 0,0 l/m 1,9 km/h (1 Bft) O-SO 115 0 min 0,000 mm 0,0 UV-I 0 W/m -0,9 C 0,7 C 8,0 km/h (2 Bft)
18.02.2016 07:20 0,7 C 89 % 1015,3 hPa 0,0 l/m 1,1 km/h (1 Bft) S 182 0 min 0,000 mm 0,0 UV-I 0 W/m -0,9 C 0,7 C 8,0 km/h (2 Bft)
18.02.2016 07:25 0,7 C 89 % 1015,3 hPa 0,0 l/m 0,1 km/h (0 Bft) S-SW 202 0 min 0,000 mm 0,0 UV-I 0 W/m -0,9 C 0,7 C 3,2 km/h (1 Bft)
18.02.2016 07:30 0,8 C 88 % 1015,3 hPa 0,0 l/m 0,0 km/h (0 Bft) S-SO 157 0 min 0,000 mm 0,0 UV-I 0 W/m -1,0 C 0,8 C 0,0 km/h (0 Bft)
18.02.2016 07:35 0,8 C 88 % 1015,4 hPa 0,0 l/m 0,0 km/h (0 Bft) W 266 0 min 0,000 mm 0,0 UV-I 0 W/m -1,0 C 0,8 C 0,0 km/h (0 Bft)
18.02.2016 07:40 0,8 C 88 % 1015,5 hPa 0,0 l/m 0,0 km/h (0 Bft) W 266 0 min 0,000 mm 0,0 UV-I 0 W/m -1,0 C 0,8 C 0,0 km/h (0 Bft)
18.02.2016 07:45 0,8 C 88 % 1015,5 hPa 0,0 l/m 2,2 km/h (1 Bft) W 271 0 min 0,000 mm 0,0 UV-I 0 W/m -1,0 C 0,8 C 11,3 km/h (2 Bft)
18.02.2016 07:50 0,8 C 88 % 1015,6 hPa 0,0 l/m 0,0 km/h (0 Bft) W 271 0 min 0,000 mm 0,0 UV-I 0 W/m -1,0 C 0,8 C 1,6 km/h (1 Bft)
18.02.2016 07:55 0,8 C 88 % 1015,6 hPa 0,0 l/m 0,0 km/h (0 Bft) W 271 0 min 0,000 mm 0,0 UV-I 0 W/m -1,0 C 0,8 C 0,0 km/h (0 Bft)
18.02.2016 08:00 0,8 C 88 % 1015,6 hPa 0,0 l/m 0,0 km/h (0 Bft) W 271 0 min 0,000 mm 0,0 UV-I 0 W/m -1,0 C 0,8 C 0,0 km/h (0 Bft)
18.02.2016 08:05 0,8 C 88 % 1015,6 hPa 0,0 l/m 0,0 km/h (0 Bft) W 271 0 min 0,000 mm 0,0 UV-I 0 W/m -1,0 C 0,8 C 0,0 km/h (0 Bft)
18.02.2016 08:10 0,8 C 88 % 1015,7 hPa 0,0 l/m 0,0 km/h (0 Bft) W 271 0 min 0,000 mm 0,0 UV-I 1 W/m -1,0 C 0,8 C 0,0 km/h (0 Bft)
18.02.2016 08:15 0,8 C 88 % 1015,8 hPa 0,0 l/m 0,0 km/h (0 Bft) W 271 0 min 0,000 mm 0,0 UV-I 5 W/m -1,0 C 0,8 C 0,0 km/h (0 Bft)
18.02.2016 08:20 0,8 C 89 % 1015,8 hPa 0,0 l/m 0,0 km/h (0 Bft) W 271 0 min 0,000 mm 0,0 UV-I 6 W/m -0,8 C 0,8 C 0,0 km/h (0 Bft)
18.02.2016 08:25 0,8 C 89 % 1015,8 hPa 0,0 l/m 0,0 km/h (0 Bft) W 271 0 min 0,000 mm 0,0 UV-I 8 W/m -0,8 C 0,8 C 0,0 km/h (0 Bft)
18.02.2016 08:30 0,8 C 89 % 1015,9 hPa 0,0 l/m 0,0 km/h (0 Bft) W 271 0 min 0,000 mm 0,0 UV-I 9 W/m -0,8 C 0,8 C 0,0 km/h (0 Bft)
18.02.2016 08:35 0,8 C 89 % 1015,9 hPa 0,0 l/m 0,0 km/h (0 Bft) W 271 0 min 0,000 mm 0,0 UV-I 11 W/m -0,8 C 0,8 C 0,0 km/h (0 Bft)
18.02.2016 08:40 0,8 C 89 % 1015,9 hPa 0,0 l/m 0,0 km/h (0 Bft) W 271 0 min 0,000 mm 0,0 UV-I 11 W/m -0,8 C 0,8 C 0,0 km/h (0 Bft)
18.02.2016 08:45 0,8 C 89 % 1016,0 hPa 0,0 l/m 0,0 km/h (0 Bft) W 271 0 min 0,000 mm 0,0 UV-I 14 W/m -0,8 C 0,8 C 0,0 km/h (0 Bft)
18.02.2016 08:50 0,8 C 89 % 1015,9 hPa 0,0 l/m 0,0 km/h (0 Bft) W 271 0 min 0,000 mm 0,0 UV-I 16 W/m -0,8 C 0,8 C 0,0 km/h (0 Bft)
18.02.2016 08:55 0,8 C 88 % 1016,0 hPa 0,0 l/m 0,0 km/h (0 Bft) W 271 0 min 0,000 mm 0,0 UV-I 18 W/m -1,0 C 0,8 C 0,0 km/h (0 Bft)
18.02.2016 09:00 0,8 C 87 % 1016,0 hPa 0,0 l/m 0,0 km/h (0 Bft) S-SO 147 0 min 0,000 mm 0,0 UV-I 18 W/m -1,1 C 0,8 C 0,0 km/h (0 Bft)
18.02.2016 09:05 0,8 C 87 % 1016,1 hPa 0,0 l/m 0,1 km/h (0 Bft) SO 137 0 min 0,000 mm 0,0 UV-I 18 W/m -1,1 C 0,8 C 3,2 km/h (1 Bft)
18.02.2016 09:10 0,9 C 87 % 1016,1 hPa 0,0 l/m 0,0 km/h (0 Bft) S-SW 198 0 min 0,000 mm 0,0 UV-I 19 W/m -1,0 C 0,9 C 1,6 km/h (1 Bft)
18.02.2016 09:15 0,9 C 86 % 1016,1 hPa 0,0 l/m 0,1 km/h (0 Bft) S-SW 205 0 min 0,000 mm 0,0 UV-I 22 W/m -1,2 C 0,9 C 3,2 km/h (1 Bft)
18.02.2016 09:20 0,9 C 87 % 1016,2 hPa 0,0 l/m 0,0 km/h (0 Bft) S-SW 205 0 min 0,000 mm 0,0 UV-I 25 W/m -1,0 C 0,9 C 0,0 km/h (0 Bft)
18.02.2016 09:25 1,0 C 87 % 1016,2 hPa 0,0 l/m 0,0 km/h (0 Bft) S-SW 205 0 min 0,000 mm 0,0 UV-I 24 W/m -0,9 C 1,0 C 0,0 km/h (0 Bft)
18.02.2016 09:30 1,0 C 86 % 1016,2 hPa 0,0 l/m 0,0 km/h (0 Bft) S-SW 205 0 min 0,000 mm 0,0 UV-I 26 W/m -1,1 C 1,0 C 0,0 km/h (0 Bft)
18.02.2016 09:35 1,0 C 86 % 1016,2 hPa 0,0 l/m 0,0 km/h (0 Bft) S-SW 205 0 min 0,000 mm 0,0 UV-I 26 W/m -1,1 C 1,0 C 0,0 km/h (0 Bft)
18.02.2016 09:40 1,1 C 85 % 1016,3 hPa 0,0 l/m 0,0 km/h (0 Bft) S-SO 157 0 min 0,000 mm 0,0 UV-I 26 W/m -1,1 C 1,1 C 0,0 km/h (0 Bft)
18.02.2016 09:45 1,1 C 85 % 1016,3 hPa 0,0 l/m 0,2 km/h (0 Bft) S-SW 192 0 min 0,000 mm 0,0 UV-I 32 W/m -1,1 C 1,1 C 3,2 km/h (1 Bft)
18.02.2016 09:50 1,1 C 83 % 1016,3 hPa 0,0 l/m 0,0 km/h (0 Bft) S-SW 207 0 min 0,000 mm 0,0 UV-I 36 W/m -1,5 C 1,1 C 0,0 km/h (0 Bft)
18.02.2016 09:55 1,2 C 84 % 1016,3 hPa 0,0 l/m 0,0 km/h (0 Bft) S 174 0 min 0,000 mm 0,0 UV-I 41 W/m -1,2 C 1,2 C 1,6 km/h (1 Bft)
18.02.2016 10:00 1,2 C 83 % 1016,3 hPa 0,0 l/m 0,0 km/h (0 Bft) W-SW 242 0 min 0,000 mm 0,0 UV-I 42 W/m -1,4 C 1,2 C 3,2 km/h (1 Bft)
18.02.2016 10:05 1,3 C 82 % 1016,2 hPa 0,0 l/m 0,8 km/h (0 Bft) S-SW 195 0 min 0,000 mm 0,0 UV-I 44 W/m -1,4 C 1,3 C 4,8 km/h (1 Bft)
18.02.2016 10:10 1,3 C 83 % 1016,2 hPa 0,0 l/m 0,0 km/h (0 Bft) SO 132 0 min 0,000 mm 0,0 UV-I 45 W/m -1,3 C 1,3 C 0,0 km/h (0 Bft)
18.02.2016 10:15 1,3 C 81 % 1016,2 hPa 0,0 l/m 0,1 km/h (0 Bft) SW 219 0 min 0,000 mm 0,0 UV-I 46 W/m -1,6 C 1,3 C 3,2 km/h (1 Bft)
18.02.2016 10:20 1,4 C 81 % 1016,2 hPa 0,0 l/m 0,0 km/h (0 Bft) S-SW 200 0 min 0,000 mm 0,0 UV-I 52 W/m -1,5 C 1,4 C 0,0 km/h (0 Bft)
18.02.2016 10:25 1,4 C 81 % 1016,2 hPa 0,0 l/m 0,0 km/h (0 Bft) S-SW 200 0 min 0,000 mm 0,0 UV-I 58 W/m -1,5 C 1,4 C 0,0 km/h (0 Bft)
18.02.2016 10:30 1,4 C 81 % 1016,2 hPa 0,0 l/m 0,0 km/h (0 Bft) O-SO 112 0 min 0,000 mm 0,0 UV-I 60 W/m -1,5 C 1,4 C 0,0 km/h (0 Bft)
18.02.2016 10:35 1,5 C 81 % 1016,2 hPa 0,0 l/m 0,0 km/h (0 Bft) S 175 0 min 0,000 mm 0,0 UV-I 63 W/m -1,4 C 1,5 C 1,6 km/h (1 Bft)
18.02.2016 10:40 1,6 C 80 % 1016,2 hPa 0,0 l/m 0,0 km/h (0 Bft) S-SO 151 0 min 0,000 mm 0,0 UV-I 66 W/m -1,5 C 1,6 C 0,0 km/h (0 Bft)
18.02.2016 10:45 1,5 C 80 % 1016,2 hPa 0,0 l/m 0,0 km/h (0 Bft) SO 126 0 min 0,000 mm 0,0 UV-I 70 W/m -1,6 C 1,5 C 0,0 km/h (0 Bft)
18.02.2016 10:50 1,5 C 80 % 1016,3 hPa 0,0 l/m 0,0 km/h (0 Bft) S-SW 202 0 min 0,000 mm 0,0 UV-I 70 W/m -1,6 C 1,5 C 0,0 km/h (0 Bft)
18.02.2016 10:55 1,6 C 79 % 1016,3 hPa 0,0 l/m 0,1 km/h (0 Bft) S-SW 195 0 min 0,000 mm 0,0 UV-I 70 W/m -1,6 C 1,6 C 1,6 km/h (1 Bft)
18.02.2016 11:00 1,6 C 79 % 1016,4 hPa 0,0 l/m 0,2 km/h (0 Bft) SO 138 0 min 0,000 mm 0,0 UV-I 75 W/m -1,6 C 1,6 C 3,2 km/h (1 Bft)
18.02.2016 11:05 1,6 C 78 % 1016,3 hPa 0,0 l/m 0,8 km/h (0 Bft) S-SW 193 0 min 0,025 mm 0,5 UV-I 79 W/m -1,8 C 1,6 C 6,4 km/h (2 Bft)
18.02.2016 11:10 1,6 C 78 % 1016,3 hPa 0,0 l/m 1,1 km/h (1 Bft) S-SO 151 0 min 0,000 mm 0,5 UV-I 85 W/m -1,8 C 1,6 C 8,0 km/h (2 Bft)
18.02.2016 11:15 1,6 C 77 % 1016,3 hPa 0,0 l/m 1,7 km/h (1 Bft) SO 145 0 min 0,000 mm 0,5 UV-I 88 W/m -2,0 C 1,6 C 6,4 km/h (2 Bft)
18.02.2016 11:20 1,6 C 77 % 1016,4 hPa 0,0 l/m 1,6 km/h (1 Bft) S-SO 161 0 min 0,000 mm 0,5 UV-I 103 W/m -2,0 C 1,6 C 8,0 km/h (2 Bft)
18.02.2016 11:25 1,6 C 77 % 1016,3 hPa 0,0 l/m 0,7 km/h (0 Bft) S 178 0 min 0,000 mm 0,6 UV-I 113 W/m -2,0 C 1,6 C 4,8 km/h (1 Bft)
18.02.2016 11:30 1,7 C 76 % 1016,3 hPa 0,0 l/m 0,5 km/h (0 Bft) S-SO 164 0 min 0,000 mm 0,6 UV-I 116 W/m -2,1 C 1,7 C 6,4 km/h (2 Bft)
18.02.2016 11:35 1,8 C 77 % 1016,4 hPa 0,0 l/m 0,0 km/h (0 Bft) O-SO 112 0 min 0,000 mm 0,6 UV-I 121 W/m -1,8 C 1,8 C 1,6 km/h (1 Bft)
18.02.2016 11:40 2,0 C 76 % 1016,4 hPa 0,0 l/m 0,0 km/h (0 Bft) SW 235 0 min 0,000 mm 0,6 UV-I 129 W/m -1,8 C 2,0 C 1,6 km/h (1 Bft)
18.02.2016 11:45 2,1 C 72 % 1016,4 hPa 0,0 l/m 0,0 km/h (0 Bft) SW 224 0 min 0,000 mm 0,7 UV-I 140 W/m -2,4 C 2,1 C 0,0 km/h (0 Bft)
18.02.2016 11:50 2,3 C 68 % 1016,5 hPa 0,0 l/m 0,6 km/h (0 Bft) SW 221 0 min 0,000 mm 0,7 UV-I 135 W/m -3,0 C 2,3 C 6,4 km/h (2 Bft)
18.02.2016 11:55 2,3 C 69 % 1016,6 hPa 0,0 l/m 0,5 km/h (0 Bft) SW 230 0 min 0,000 mm 0,7 UV-I 133 W/m -2,8 C 2,3 C 4,8 km/h (1 Bft)
18.02.2016 12:00 2,4 C 69 % 1016,6 hPa 0,0 l/m 0,1 km/h (0 Bft) W-SW 246 0 min 0,000 mm 0,7 UV-I 148 W/m -2,7 C 2,4 C 1,6 km/h (1 Bft)
18.02.2016 12:05 2,6 C 68 % 1016,6 hPa 0,0 l/m 0,0 km/h (0 Bft) W-SW 249 0 min 0,051 mm 0,8 UV-I 163 W/m -2,7 C 2,6 C 0,0 km/h (0 Bft)
18.02.2016 12:10 2,7 C 68 % 1016,5 hPa 0,0 l/m 0,0 km/h (0 Bft) W-SW 249 0 min 0,000 mm 0,8 UV-I 183 W/m -2,6 C 2,7 C 0,0 km/h (0 Bft)
18.02.2016 12:15 2,8 C 67 % 1016,5 hPa 0,0 l/m 0,0 km/h (0 Bft) W-SW 238 0 min 0,000 mm 0,9 UV-I 201 W/m -2,7 C 2,8 C 1,6 km/h (1 Bft)
18.02.2016 12:20 2,9 C 63 % 1016,5 hPa 0,0 l/m 0,6 km/h (0 Bft) W 272 0 min 0,000 mm 0,9 UV-I 218 W/m -3,4 C 2,9 C 6,4 km/h (2 Bft)
18.02.2016 12:25 2,9 C 63 % 1016,4 hPa 0,0 l/m 0,7 km/h (0 Bft) W-SW 240 0 min 0,000 mm 0,9 UV-I 222 W/m -3,4 C 2,9 C 6,4 km/h (2 Bft)
18.02.2016 12:30 3,1 C 62 % 1016,2 hPa 0,0 l/m 0,2 km/h (0 Bft) W 266 0 min 0,000 mm 1,0 UV-I 240 W/m -3,5 C 3,1 C 3,2 km/h (1 Bft)
18.02.2016 12:35 3,3 C 62 % 1016,2 hPa 0,0 l/m 0,5 km/h (0 Bft) W-SW 257 0 min 0,000 mm 0,9 UV-I 221 W/m -3,3 C 3,3 C 3,2 km/h (1 Bft)
18.02.2016 12:40 3,3 C 62 % 1016,1 hPa 0,0 l/m 2,1 km/h (1 Bft) S-SO 152 0 min 0,000 mm 0,9 UV-I 219 W/m -3,3 C 3,3 C 11,3 km/h (2 Bft)
18.02.2016 12:45 3,3 C 64 % 1016,1 hPa 0,0 l/m 1,3 km/h (1 Bft) S 182 0 min 0,000 mm 0,9 UV-I 214 W/m -2,8 C 3,3 C 9,7 km/h (2 Bft)
18.02.2016 12:50 3,4 C 63 % 1015,9 hPa 0,0 l/m 1,8 km/h (1 Bft) S 175 0 min 0,000 mm 0,9 UV-I 198 W/m -3,0 C 3,4 C 6,4 km/h (2 Bft)
18.02.2016 12:55 3,1 C 62 % 1015,9 hPa 0,0 l/m 5,5 km/h (1 Bft) S-SO 150 0 min 0,000 mm 0,8 UV-I 164 W/m -3,5 C 3,1 C 14,5 km/h (3 Bft)
18.02.2016 13:00 3,0 C 65 % 1015,9 hPa 0,0 l/m 0,2 km/h (0 Bft) S-SW 208 0 min 0,000 mm 0,7 UV-I 134 W/m -2,9 C 3,0 C 4,8 km/h (1 Bft)
18.02.2016 13:05 3,1 C 64 % 1016,0 hPa 0,0 l/m 1,1 km/h (1 Bft) W 259 0 min 0,076 mm 0,6 UV-I 126 W/m -3,0 C 3,1 C 9,7 km/h (2 Bft)
18.02.2016 13:10 3,2 C 64 % 1016,0 hPa 0,0 l/m 0,6 km/h (0 Bft) SW 224 0 min 0,000 mm 0,7 UV-I 139 W/m -2,9 C 3,2 C 6,4 km/h (2 Bft)
18.02.2016 13:15 3,2 C 64 % 1016,1 hPa 0,0 l/m 1,0 km/h (0 Bft) W-SW 250 0 min 0,000 mm 0,6 UV-I 124 W/m -2,9 C 3,2 C 9,7 km/h (2 Bft)
18.02.2016 13:20 3,3 C 64 % 1015,9 hPa 0,0 l/m 0,8 km/h (0 Bft) SW 227 0 min 0,000 mm 0,7 UV-I 143 W/m -2,8 C 3,3 C 6,4 km/h (2 Bft)
18.02.2016 13:25 3,3 C 65 % 1015,9 hPa 0,0 l/m 0,3 km/h (0 Bft) W-SW 242 0 min 0,000 mm 0,7 UV-I 140 W/m -2,6 C 3,3 C 4,8 km/h (1 Bft)
18.02.2016 13:30 3,4 C 66 % 1015,9 hPa 0,0 l/m 0,5 km/h (0 Bft) SW 234 0 min 0,000 mm 0,7 UV-I 147 W/m -2,3 C 3,4 C 6,4 km/h (2 Bft)
18.02.2016 13:35 3,4 C 65 % 1015,8 hPa 0,0 l/m 0,5 km/h (0 Bft) SW 231 0 min 0,000 mm 0,6 UV-I 141 W/m -2,5 C 3,4 C 6,4 km/h (2 Bft)
18.02.2016 13:40 3,4 C 66 % 1015,8 hPa 0,0 l/m 0,4 km/h (0 Bft) S 188 0 min 0,000 mm 0,6 UV-I 145 W/m -2,3 C 3,4 C 3,2 km/h (1 Bft)
18.02.2016 13:45 3,5 C 65 % 1015,7 hPa 0,0 l/m 1,4 km/h (1 Bft) S 185 0 min 0,000 mm 0,7 UV-I 165 W/m -2,4 C 3,5 C 9,7 km/h (2 Bft)
18.02.2016 13:50 3,4 C 65 % 1015,6 hPa 0,0 l/m 0,4 km/h (0 Bft) S-SW 213 0 min 0,000 mm 0,7 UV-I 170 W/m -2,5 C 3,4 C 4,8 km/h (1 Bft)
18.02.2016 13:55 3,4 C 65 % 1015,7 hPa 0,0 l/m 0,3 km/h (0 Bft) S-SW 208 0 min 0,000 mm 0,7 UV-I 154 W/m -2,5 C 3,4 C 1,6 km/h (1 Bft)
18.02.2016 14:00 3,4 C 66 % 1015,6 hPa 0,0 l/m 1,8 km/h (1 Bft) SW 231 0 min 0,000 mm 0,7 UV-I 164 W/m -2,3 C 3,4 C 8,0 km/h (2 Bft)
18.02.2016 14:05 3,4 C 66 % 1015,6 hPa 0,0 l/m 0,5 km/h (0 Bft) S 180 0 min 0,051 mm 0,7 UV-I 159 W/m -2,3 C 3,4 C 6,4 km/h (2 Bft)
18.02.2016 14:10 3,5 C 65 % 1015,6 hPa 0,0 l/m 1,0 km/h (0 Bft) S-SW 192 0 min 0,000 mm 0,6 UV-I 136 W/m -2,4 C 3,5 C 4,8 km/h (1 Bft)
18.02.2016 14:15 3,5 C 65 % 1015,8 hPa 0,0 l/m 2,0 km/h (1 Bft) S 187 0 min 0,000 mm 0,6 UV-I 133 W/m -2,4 C 3,5 C 11,3 km/h (2 Bft)
18.02.2016 14:20 3,5 C 65 % 1015,8 hPa 0,0 l/m 1,3 km/h (1 Bft) W-SW 246 0 min 0,000 mm 0,6 UV-I 144 W/m -2,4 C 3,5 C 9,7 km/h (2 Bft)
18.02.2016 14:25 3,4 C 65 % 1015,8 hPa 0,0 l/m 3,7 km/h (1 Bft) S-SW 200 0 min 0,000 mm 0,6 UV-I 155 W/m -2,5 C 3,4 C 11,3 km/h (2 Bft)
18.02.2016 14:30 3,4 C 66 % 1015,7 hPa 0,0 l/m 4,4 km/h (1 Bft) S-SW 213 0 min 0,000 mm 0,6 UV-I 157 W/m -2,3 C 3,4 C 11,3 km/h (2 Bft)
18.02.2016 14:35 3,3 C 65 % 1015,7 hPa 0,0 l/m 2,5 km/h (1 Bft) W-SW 244 0 min 0,000 mm 0,6 UV-I 128 W/m -2,6 C 3,3 C 8,0 km/h (2 Bft)
18.02.2016 14:40 3,3 C 66 % 1015,7 hPa 0,0 l/m 1,8 km/h (1 Bft) O-SO 106 0 min 0,000 mm 0,5 UV-I 101 W/m -2,4 C 3,3 C 6,4 km/h (2 Bft)
18.02.2016 14:45 3,4 C 66 % 1015,8 hPa 0,0 l/m 2,1 km/h (1 Bft) S 182 0 min 0,000 mm 0,5 UV-I 102 W/m -2,3 C 3,4 C 12,9 km/h (3 Bft)
18.02.2016 14:50 3,3 C 67 % 1015,7 hPa 0,0 l/m 3,4 km/h (1 Bft) S-SO 168 0 min 0,000 mm 0,0 UV-I 87 W/m -2,2 C 3,3 C 11,3 km/h (2 Bft)
18.02.2016 14:55 3,3 C 68 % 1015,7 hPa 0,0 l/m 0,8 km/h (0 Bft) W-SW 240 0 min 0,000 mm 0,0 UV-I 86 W/m -2,0 C 3,3 C 8,0 km/h (2 Bft)
18.02.2016 15:00 3,4 C 68 % 1015,7 hPa 0,0 l/m 1,5 km/h (1 Bft) SW 235 0 min 0,000 mm 0,4 UV-I 93 W/m -1,9 C 3,4 C 8,0 km/h (2 Bft)
18.02.2016 15:05 3,3 C 68 % 1015,7 hPa 0,0 l/m 3,5 km/h (1 Bft) SW 236 0 min 0,051 mm 0,5 UV-I 119 W/m -2,0 C 3,3 C 12,9 km/h (3 Bft)
18.02.2016 15:10 3,3 C 69 % 1015,7 hPa 0,0 l/m 2,6 km/h (1 Bft) W-SW 238 0 min 0,000 mm 0,5 UV-I 165 W/m -1,8 C 3,3 C 11,3 km/h (2 Bft)
18.02.2016 15:15 3,4 C 68 % 1015,6 hPa 0,0 l/m 2,1 km/h (1 Bft) SW 223 0 min 0,000 mm 0,6 UV-I 160 W/m -1,9 C 3,4 C 9,7 km/h (2 Bft)
18.02.2016 15:20 3,4 C 68 % 1015,6 hPa 0,0 l/m 1,3 km/h (1 Bft) S-SW 202 0 min 0,000 mm 0,6 UV-I 136 W/m -1,9 C 3,4 C 6,4 km/h (2 Bft)
18.02.2016 15:25 3,5 C 67 % 1015,5 hPa 0,0 l/m 2,0 km/h (1 Bft) S-SW 195 0 min 0,000 mm 0,5 UV-I 160 W/m -2,0 C 3,5 C 8,0 km/h (2 Bft)
18.02.2016 15:30 3,6 C 65 % 1015,6 hPa 0,0 l/m 0,8 km/h (0 Bft) SW 230 0 min 0,000 mm 0,5 UV-I 146 W/m -2,4 C 3,6 C 9,7 km/h (2 Bft)
18.02.2016 15:35 3,7 C 66 % 1015,6 hPa 0,0 l/m 0,8 km/h (0 Bft) SW 223 0 min 0,000 mm 0,2 UV-I 121 W/m -2,0 C 3,7 C 4,8 km/h (1 Bft)
18.02.2016 15:40 3,6 C 64 % 1015,6 hPa 0,0 l/m 2,8 km/h (1 Bft) W-NW 282 0 min 0,000 mm 0,0 UV-I 124 W/m -2,6 C 3,6 C 11,3 km/h (2 Bft)
18.02.2016 15:45 3,6 C 64 % 1015,6 hPa 0,0 l/m 1,8 km/h (1 Bft) S-SW 211 0 min 0,000 mm 0,0 UV-I 133 W/m -2,6 C 3,6 C 11,3 km/h (2 Bft)
18.02.2016 15:50 3,7 C 64 % 1015,6 hPa 0,0 l/m 0,8 km/h (0 Bft) SW 234 5 min 0,000 mm 0,0 UV-I 148 W/m -2,5 C 3,7 C 11,3 km/h (2 Bft)
18.02.2016 15:55 3,7 C 62 % 1015,7 hPa 0,0 l/m 2,4 km/h (1 Bft) SW 234 0 min 0,000 mm 0,0 UV-I 133 W/m -2,9 C 3,7 C 11,3 km/h (2 Bft)
18.02.2016 16:00 3,7 C 60 % 1015,7 hPa 0,0 l/m 1,0 km/h (0 Bft) SO 130 0 min 0,000 mm 0,0 UV-I 111 W/m -3,3 C 3,7 C 8,0 km/h (2 Bft)
18.02.2016 16:05 3,6 C 61 % 1015,7 hPa 0,0 l/m 0,6 km/h (0 Bft) S 172 0 min 0,051 mm 0,0 UV-I 117 W/m -3,2 C 3,6 C 4,8 km/h (1 Bft)
18.02.2016 16:10 3,6 C 61 % 1015,8 hPa 0,0 l/m 0,5 km/h (0 Bft) W-SW 238 5 min 0,000 mm 0,0 UV-I 136 W/m -3,2 C 3,6 C 6,4 km/h (2 Bft)
18.02.2016 16:15 3,8 C 61 % 1015,8 hPa 0,0 l/m 1,2 km/h (1 Bft) NW 314 5 min 0,000 mm 0,0 UV-I 166 W/m -3,0 C 3,8 C 8,0 km/h (2 Bft)
18.02.2016 16:20 3,7 C 61 % 1015,8 hPa 0,0 l/m 1,4 km/h (1 Bft) S-SW 199 5 min 0,000 mm 0,0 UV-I 141 W/m -3,1 C 3,7 C 9,7 km/h (2 Bft)
18.02.2016 16:25 3,7 C 62 % 1015,8 hPa 0,0 l/m 0,6 km/h (0 Bft) S-SW 213 5 min 0,000 mm 0,0 UV-I 123 W/m -2,9 C 3,7 C 6,4 km/h (2 Bft)
18.02.2016 16:30 3,8 C 62 % 1015,8 hPa 0,0 l/m 0,8 km/h (0 Bft) W-SW 254 5 min 0,000 mm 0,0 UV-I 107 W/m -2,8 C 3,8 C 6,4 km/h (2 Bft)
18.02.2016 16:35 3,9 C 61 % 1015,8 hPa 0,0 l/m 0,0 km/h (0 Bft) S 188 5 min 0,000 mm 0,0 UV-I 124 W/m -2,9 C 3,9 C 1,6 km/h (1 Bft)
18.02.2016 16:40 4,1 C 61 % 1015,8 hPa 0,0 l/m 0,0 km/h (0 Bft) S-SW 196 5 min 0,000 mm 0,0 UV-I 126 W/m -2,7 C 4,1 C 1,6 km/h (1 Bft)
18.02.2016 16:45 4,1 C 60 % 1015,7 hPa 0,0 l/m 0,2 km/h (0 Bft) O-SO 123 5 min 0,000 mm 0,0 UV-I 97 W/m -3,0 C 4,1 C 4,8 km/h (1 Bft)
18.02.2016 16:50 4,0 C 61 % 1015,7 hPa 0,0 l/m 0,1 km/h (0 Bft) S 188 5 min 0,000 mm 0,0 UV-I 83 W/m -2,8 C 4,0 C 3,2 km/h (1 Bft)
18.02.2016 16:55 3,9 C 61 % 1015,8 hPa 0,0 l/m 0,1 km/h (0 Bft) SW 229 0 min 0,000 mm 0,0 UV-I 60 W/m -2,9 C 3,9 C 3,2 km/h (1 Bft)
18.02.2016 17:00 3,7 C 61 % 1015,8 hPa 0,0 l/m 0,0 km/h (0 Bft) SW 232 0 min 0,000 mm 0,0 UV-I 48 W/m -3,1 C 3,7 C 1,6 km/h (1 Bft)
18.02.2016 17:05 3,6 C 63 % 1015,8 hPa 0,0 l/m 0,1 km/h (0 Bft) W-SW 255 0 min 0,051 mm 0,0 UV-I 43 W/m -2,8 C 3,6 C 1,6 km/h (1 Bft)
18.02.2016 17:10 3,5 C 63 % 1015,8 hPa 0,0 l/m 0,0 km/h (0 Bft) SW 227 0 min 0,000 mm 0,0 UV-I 39 W/m -2,9 C 3,5 C 0,0 km/h (0 Bft)
18.02.2016 17:15 3,4 C 64 % 1015,8 hPa 0,0 l/m 0,0 km/h (0 Bft) SW 227 0 min 0,000 mm 0,0 UV-I 33 W/m -2,7 C 3,4 C 0,0 km/h (0 Bft)
18.02.2016 17:20 3,3 C 65 % 1015,9 hPa 0,0 l/m 0,0 km/h (0 Bft) SW 227 0 min 0,000 mm 0,0 UV-I 29 W/m -2,6 C 3,3 C 0,0 km/h (0 Bft)
18.02.2016 17:25 3,3 C 65 % 1015,9 hPa 0,0 l/m 0,0 km/h (0 Bft) SW 227 0 min 0,000 mm 0,0 UV-I 23 W/m -2,6 C 3,3 C 0,0 km/h (0 Bft)
18.02.2016 17:30 3,2 C 64 % 1015,9 hPa 0,0 l/m 0,0 km/h (0 Bft) W 272 5 min 0,000 mm 0,0 UV-I 18 W/m -2,9 C 3,2 C 0,0 km/h (0 Bft)
18.02.2016 17:35 3,1 C 65 % 1015,9 hPa 0,0 l/m 0,0 km/h (0 Bft) W 272 5 min 0,000 mm 0,0 UV-I 13 W/m -2,8 C 3,1 C 0,0 km/h (0 Bft)
18.02.2016 17:40 2,9 C 66 % 1015,9 hPa 0,0 l/m 0,0 km/h (0 Bft) W 272 0 min 0,000 mm 0,0 UV-I 8 W/m -2,8 C 2,9 C 0,0 km/h (0 Bft)
18.02.2016 17:45 2,8 C 65 % 1015,9 hPa 0,0 l/m 0,0 km/h (0 Bft) W 272 0 min 0,000 mm 0,0 UV-I 3 W/m -3,1 C 2,8 C 0,0 km/h (0 Bft)
18.02.2016 17:50 2,7 C 66 % 1016,0 hPa 0,0 l/m 0,0 km/h (0 Bft) W 272 0 min 0,000 mm 0,0 UV-I 0 W/m -3,0 C 2,7 C 0,0 km/h (0 Bft)
18.02.2016 17:55 2,6 C 67 % 1016,0 hPa 0,0 l/m 0,0 km/h (0 Bft) W 272 0 min 0,000 mm 0,0 UV-I 0 W/m -2,9 C 2,6 C 0,0 km/h (0 Bft)
18.02.2016 18:00 2,5 C 68 % 1016,1 hPa 0,0 l/m 0,0 km/h (0 Bft) W 272 0 min 0,000 mm 0,0 UV-I 0 W/m -2,8 C 2,5 C 0,0 km/h (0 Bft)
18.02.2016 18:05 2,4 C 68 % 1016,2 hPa 0,0 l/m 0,0 km/h (0 Bft) W 272 0 min 0,000 mm 0,0 UV-I 0 W/m -2,9 C 2,4 C 0,0 km/h (0 Bft)
18.02.2016 18:10 2,3 C 69 % 1016,2 hPa 0,0 l/m 0,0 km/h (0 Bft) W 272 0 min 0,000 mm 0,0 UV-I 0 W/m -2,8 C 2,3 C 0,0 km/h (0 Bft)
18.02.2016 18:15 2,2 C 70 % 1016,3 hPa 0,0 l/m 0,0 km/h (0 Bft) W 272 0 min 0,000 mm 0,0 UV-I 0 W/m -2,7 C 2,2 C 0,0 km/h (0 Bft)
18.02.2016 18:20 2,1 C 70 % 1016,3 hPa 0,0 l/m 0,0 km/h (0 Bft) W 272 0 min 0,000 mm 0,0 UV-I 0 W/m -2,8 C 2,1 C 0,0 km/h (0 Bft)
18.02.2016 18:25 2,0 C 70 % 1016,4 hPa 0,0 l/m 0,0 km/h (0 Bft) W 272 0 min 0,000 mm 0,0 UV-I 0 W/m -2,9 C 2,0 C 0,0 km/h (0 Bft)
18.02.2016 18:30 1,8 C 70 % 1016,4 hPa 0,0 l/m 0,0 km/h (0 Bft) W 272 0 min 0,000 mm 0,0 UV-I 0 W/m -3,1 C 1,8 C 0,0 km/h (0 Bft)
18.02.2016 18:35 1,7 C 70 % 1016,5 hPa 0,0 l/m 0,0 km/h (0 Bft) W 272 0 min 0,000 mm 0,0 UV-I 0 W/m -3,2 C 1,7 C 0,0 km/h (0 Bft)
18.02.2016 18:40 1,5 C 71 % 1016,6 hPa 0,0 l/m 0,0 km/h (0 Bft) W 272 0 min 0,000 mm 0,0 UV-I 0 W/m -3,2 C 1,5 C 0,0 km/h (0 Bft)
18.02.2016 18:45 1,3 C 72 % 1016,6 hPa 0,0 l/m 0,0 km/h (0 Bft) W 272 0 min 0,000 mm 0,0 UV-I 0 W/m -3,2 C 1,3 C 0,0 km/h (0 Bft)
18.02.2016 18:50 0,9 C 72 % 1016,7 hPa 0,0 l/m 0,0 km/h (0 Bft) W 272 0 min 0,000 mm 0,0 UV-I 0 W/m -3,6 C 0,9 C 0,0 km/h (0 Bft)
18.02.2016 18:55 0,7 C 73 % 1016,7 hPa 0,0 l/m 0,0 km/h (0 Bft) W 272 0 min 0,000 mm 0,0 UV-I 0 W/m -3,6 C 0,7 C 0,0 km/h (0 Bft)
18.02.2016 19:00 0,6 C 75 % 1016,7 hPa 0,0 l/m 0,0 km/h (0 Bft) W 272 0 min 0,000 mm 0,0 UV-I 0 W/m -3,3 C 0,6 C 0,0 km/h (0 Bft)
18.02.2016 19:05 0,5 C 75 % 1016,7 hPa 0,0 l/m 0,0 km/h (0 Bft) W 272 0 min 0,025 mm 0,0 UV-I 0 W/m -3,4 C 0,5 C 0,0 km/h (0 Bft)
18.02.2016 19:10 0,3 C 76 % 1016,7 hPa 0,0 l/m 0,0 km/h (0 Bft) W 272 0 min 0,000 mm 0,0 UV-I 0 W/m -3,4 C 0,3 C 0,0 km/h (0 Bft)
18.02.2016 19:15 0,3 C 76 % 1016,5 hPa 0,0 l/m 0,0 km/h (0 Bft) W 272 0 min 0,000 mm 0,0 UV-I 0 W/m -3,4 C 0,3 C 0,0 km/h (0 Bft)
18.02.2016 19:20 0,2 C 77 % 1016,7 hPa 0,0 l/m 0,0 km/h (0 Bft) W 272 0 min 0,000 mm 0,0 UV-I 0 W/m -3,3 C 0,2 C 0,0 km/h (0 Bft)
18.02.2016 19:25 0,1 C 76 % 1016,7 hPa 0,0 l/m 0,0 km/h (0 Bft) W 272 0 min 0,000 mm 0,0 UV-I 0 W/m -3,6 C 0,1 C 0,0 km/h (0 Bft)
18.02.2016 19:30 0,1 C 77 % 1016,6 hPa 0,0 l/m 0,0 km/h (0 Bft) W 272 0 min 0,000 mm 0,0 UV-I 0 W/m -3,4 C 0,1 C 0,0 km/h (0 Bft)
18.02.2016 19:35 -0,1 C 77 % 1016,8 hPa 0,0 l/m 0,0 km/h (0 Bft) W 272 0 min 0,000 mm 0,0 UV-I 0 W/m -3,6 C -0,1 C 0,0 km/h (0 Bft)
18.02.2016 19:40 -0,2 C 78 % 1016,7 hPa 0,0 l/m 0,0 km/h (0 Bft) W 272 0 min 0,000 mm 0,0 UV-I 0 W/m -3,6 C -0,2 C 0,0 km/h (0 Bft)
18.02.2016 19:45 -0,3 C 79 % 1016,7 hPa 0,0 l/m 0,0 km/h (0 Bft) W 272 0 min 0,000 mm 0,0 UV-I 0 W/m -3,5 C -0,3 C 0,0 km/h (0 Bft)
18.02.2016 19:49 -0,4 C 80 % 1016,7 hPa 0,0 l/m 0,0 km/h (0 Bft) W 272 0 min 0,000 mm 0,0 UV-I 0 W/m -3,4 C -0,4 C 0,0 km/h (0 Bft)
18.02.2016 19:50 -0,4 C 80 % 1016,7 hPa 0,0 l/m 0,0 km/h (0 Bft) W 272 0 min 0,000 mm 0,0 UV-I 0 W/m -3,4 C -0,4 C 0,0 km/h (0 Bft)
18.02.2016 19:55 -0,6 C 80 % 1016,7 hPa 0,0 l/m 0,0 km/h (0 Bft) W 272 0 min 0,000 mm 0,0 UV-I 0 W/m -3,6 C -0,6 C 0,0 km/h (0 Bft)
18.02.2016 20:00 -0,8 C 81 % 1016,7 hPa 0,0 l/m 0,0 km/h (0 Bft) W 272 0 min 0,000 mm 0,0 UV-I 0 W/m -3,6 C -0,8 C 0,0 km/h (0 Bft)
18.02.2016 20:05 -0,9 C 82 % 1016,7 hPa 0,0 l/m 0,0 km/h (0 Bft) W 272 0 min 0,000 mm 0,0 UV-I 0 W/m -3,6 C -0,9 C 0,0 km/h (0 Bft)
18.02.2016 20:10 -1,0 C 82 % 1016,8 hPa 0,0 l/m 0,0 km/h (0 Bft) W 272 0 min 0,000 mm 0,0 UV-I 0 W/m -3,7 C -1,0 C 0,0 km/h (0 Bft)
18.02.2016 20:15 -1,1 C 82 % 1016,8 hPa 0,0 l/m 0,0 km/h (0 Bft) W 272 0 min 0,000 mm 0,0 UV-I 0 W/m -3,8 C -1,1 C 0,0 km/h (0 Bft)
18.02.2016 20:20 -1,1 C 82 % 1016,8 hPa 0,0 l/m 0,0 km/h (0 Bft) W 272 0 min 0,000 mm 0,0 UV-I 0 W/m -3,8 C -1,1 C 0,0 km/h (0 Bft)
18.02.2016 20:25 -1,2 C 82 % 1016,8 hPa 0,0 l/m 0,0 km/h (0 Bft) W 272 0 min 0,000 mm 0,0 UV-I 0 W/m -3,9 C -1,2 C 0,0 km/h (0 Bft)
18.02.2016 20:30 -1,2 C 82 % 1016,7 hPa 0,0 l/m 0,0 km/h (0 Bft) W 272 0 min 0,000 mm 0,0 UV-I 0 W/m -3,9 C -1,2 C 0,0 km/h (0 Bft)
18.02.2016 20:35 -1,2 C 82 % 1016,7 hPa 0,0 l/m 0,0 km/h (0 Bft) W 272 0 min 0,000 mm 0,0 UV-I 0 W/m -3,9 C -1,2 C 0,0 km/h (0 Bft)
18.02.2016 20:40 -1,2 C 83 % 1016,8 hPa 0,0 l/m 0,0 km/h (0 Bft) W 272 0 min 0,000 mm 0,0 UV-I 0 W/m -3,7 C -1,2 C 0,0 km/h (0 Bft)
18.02.2016 20:45 -1,2 C 83 % 1016,7 hPa 0,0 l/m 0,0 km/h (0 Bft) W 272 0 min 0,000 mm 0,0 UV-I 0 W/m -3,7 C -1,2 C 0,0 km/h (0 Bft)
18.02.2016 20:50 -1,3 C 83 % 1016,7 hPa 0,0 l/m 0,0 km/h (0 Bft) W 272 0 min 0,000 mm 0,0 UV-I 0 W/m -3,8 C -1,3 C 0,0 km/h (0 Bft)
18.02.2016 20:55 -1,3 C 83 % 1016,7 hPa 0,0 l/m 0,0 km/h (0 Bft) W 272 0 min 0,000 mm 0,0 UV-I 0 W/m -3,8 C -1,3 C 0,0 km/h (0 Bft)
18.02.2016 21:00 -1,4 C 84 % 1016,8 hPa 0,0 l/m 0,0 km/h (0 Bft) W 272 0 min 0,000 mm 0,0 UV-I 0 W/m -3,7 C -1,4 C 0,0 km/h (0 Bft)
18.02.2016 21:05 -1,4 C 84 % 1016,7 hPa 0,0 l/m 0,0 km/h (0 Bft) W 272 0 min 0,000 mm 0,0 UV-I 0 W/m -3,7 C -1,4 C 0,0 km/h (0 Bft)
18.02.2016 21:10 -1,5 C 85 % 1016,8 hPa 0,0 l/m 0,0 km/h (0 Bft) W 272 0 min 0,000 mm 0,0 UV-I 0 W/m -3,7 C -1,5 C 0,0 km/h (0 Bft)
18.02.2016 21:15 -1,6 C 85 % 1016,7 hPa 0,0 l/m 0,0 km/h (0 Bft) W 272 0 min 0,000 mm 0,0 UV-I 0 W/m -3,8 C -1,6 C 0,0 km/h (0 Bft)
18.02.2016 21:20 -1,7 C 85 % 1016,7 hPa 0,0 l/m 0,0 km/h (0 Bft) W 272 0 min 0,000 mm 0,0 UV-I 0 W/m -3,9 C -1,7 C 0,0 km/h (0 Bft)
18.02.2016 21:25 -1,7 C 85 % 1016,8 hPa 0,0 l/m 0,0 km/h (0 Bft) W 272 0 min 0,000 mm 0,0 UV-I 0 W/m -3,9 C -1,7 C 0,0 km/h (0 Bft)
18.02.2016 21:30 -1,7 C 85 % 1016,8 hPa 0,0 l/m 0,0 km/h (0 Bft) W 272 0 min 0,000 mm 0,0 UV-I 0 W/m -3,9 C -1,7 C 0,0 km/h (0 Bft)
18.02.2016 21:35 -1,8 C 85 % 1016,8 hPa 0,0 l/m 0,0 km/h (0 Bft) W 272 0 min 0,000 mm 0,0 UV-I 0 W/m -4,0 C -1,8 C 0,0 km/h (0 Bft)
18.02.2016 21:40 -1,8 C 85 % 1016,9 hPa 0,0 l/m 0,0 km/h (0 Bft) W 272 0 min 0,000 mm 0,0 UV-I 0 W/m -4,0 C -1,8 C 0,0 km/h (0 Bft)
18.02.2016 21:45 -1,9 C 85 % 1017,0 hPa 0,0 l/m 0,0 km/h (0 Bft) W 272 0 min 0,000 mm 0,0 UV-I 0 W/m -4,1 C -1,9 C 0,0 km/h (0 Bft)
18.02.2016 21:50 -1,9 C 85 % 1017,1 hPa 0,0 l/m 0,0 km/h (0 Bft) W 272 0 min 0,000 mm 0,0 UV-I 0 W/m -4,1 C -1,9 C 0,0 km/h (0 Bft)
18.02.2016 21:55 -1,9 C 85 % 1017,1 hPa 0,0 l/m 0,0 km/h (0 Bft) W 272 0 min 0,000 mm 0,0 UV-I 0 W/m -4,1 C -1,9 C 0,0 km/h (0 Bft)
18.02.2016 22:00 -1,9 C 85 % 1017,3 hPa 0,0 l/m 0,0 km/h (0 Bft) W 272 0 min 0,000 mm 0,0 UV-I 0 W/m -4,1 C -1,9 C 0,0 km/h (0 Bft)
18.02.2016 22:05 -1,9 C 85 % 1017,2 hPa 0,0 l/m 0,0 km/h (0 Bft) W 272 0 min 0,000 mm 0,0 UV-I 0 W/m -4,1 C -1,9 C 0,0 km/h (0 Bft)
18.02.2016 22:10 -2,0 C 86 % 1017,2 hPa 0,0 l/m 0,0 km/h (0 Bft) W 272 0 min 0,000 mm 0,0 UV-I 0 W/m -4,0 C -2,0 C 0,0 km/h (0 Bft)
18.02.2016 22:15 -2,1 C 86 % 1017,3 hPa 0,0 l/m 0,0 km/h (0 Bft) W 272 0 min 0,000 mm 0,0 UV-I 0 W/m -4,1 C -2,1 C 0,0 km/h (0 Bft)
18.02.2016 22:20 -2,1 C 86 % 1017,3 hPa 0,0 l/m 0,0 km/h (0 Bft) W 272 0 min 0,000 mm 0,0 UV-I 0 W/m -4,1 C -2,1 C 0,0 km/h (0 Bft)
18.02.2016 22:25 -2,1 C 86 % 1017,3 hPa 0,0 l/m 0,0 km/h (0 Bft) W 272 0 min 0,000 mm 0,0 UV-I 0 W/m -4,1 C -2,1 C 0,0 km/h (0 Bft)
18.02.2016 22:30 -2,2 C 87 % 1017,3 hPa 0,0 l/m 0,0 km/h (0 Bft) W 272 0 min 0,000 mm 0,0 UV-I 0 W/m -4,1 C -2,2 C 0,0 km/h (0 Bft)
18.02.2016 22:35 -2,2 C 86 % 1017,3 hPa 0,0 l/m 0,0 km/h (0 Bft) W 272 0 min 0,000 mm 0,0 UV-I 0 W/m -4,2 C -2,2 C 0,0 km/h (0 Bft)
18.02.2016 22:40 -2,2 C 86 % 1017,2 hPa 0,0 l/m 0,0 km/h (0 Bft) W 272 0 min 0,000 mm 0,0 UV-I 0 W/m -4,2 C -2,2 C 0,0 km/h (0 Bft)
18.02.2016 22:45 -2,2 C 87 % 1017,2 hPa 0,0 l/m 0,0 km/h (0 Bft) W 272 0 min 0,000 mm 0,0 UV-I 0 W/m -4,1 C -2,2 C 0,0 km/h (0 Bft)
18.02.2016 22:50 -2,2 C 87 % 1017,3 hPa 0,0 l/m 0,0 km/h (0 Bft) W 272 0 min 0,000 mm 0,0 UV-I 0 W/m -4,1 C -2,2 C 0,0 km/h (0 Bft)
18.02.2016 22:55 -2,2 C 87 % 1017,2 hPa 0,0 l/m 0,0 km/h (0 Bft) W 272 0 min 0,000 mm 0,0 UV-I 0 W/m -4,1 C -2,2 C 0,0 km/h (0 Bft)
18.02.2016 23:00 -2,2 C 87 % 1017,2 hPa 0,0 l/m 0,0 km/h (0 Bft) W 272 0 min 0,000 mm 0,0 UV-I 0 W/m -4,1 C -2,2 C 0,0 km/h (0 Bft)
18.02.2016 23:05 -2,2 C 88 % 1017,2 hPa 0,0 l/m 0,0 km/h (0 Bft) W 272 0 min 0,000 mm 0,0 UV-I 0 W/m -3,9 C -2,2 C 0,0 km/h (0 Bft)
18.02.2016 23:10 -2,2 C 87 % 1017,3 hPa 0,0 l/m 0,0 km/h (0 Bft) W 272 0 min 0,000 mm 0,0 UV-I 0 W/m -4,1 C -2,2 C 0,0 km/h (0 Bft)
18.02.2016 23:15 -2,2 C 87 % 1017,3 hPa 0,0 l/m 0,0 km/h (0 Bft) W 272 0 min 0,000 mm 0,0 UV-I 0 W/m -4,1 C -2,2 C 0,0 km/h (0 Bft)
18.02.2016 23:20 -2,3 C 87 % 1017,3 hPa 0,0 l/m 0,0 km/h (0 Bft) W 272 0 min 0,000 mm 0,0 UV-I 0 W/m -4,2 C -2,3 C 0,0 km/h (0 Bft)
18.02.2016 23:25 -2,3 C 87 % 1017,4 hPa 0,0 l/m 0,0 km/h (0 Bft) W 272 0 min 0,000 mm 0,0 UV-I 0 W/m -4,2 C -2,3 C 0,0 km/h (0 Bft)
18.02.2016 23:30 -2,3 C 87 % 1017,4 hPa 0,0 l/m 0,0 km/h (0 Bft) W 272 0 min 0,000 mm 0,0 UV-I 0 W/m -4,2 C -2,3 C 0,0 km/h (0 Bft)
18.02.2016 23:35 -2,3 C 87 % 1017,4 hPa 0,0 l/m 0,0 km/h (0 Bft) W 272 0 min 0,000 mm 0,0 UV-I 0 W/m -4,2 C -2,3 C 0,0 km/h (0 Bft)
18.02.2016 23:40 -2,3 C 88 % 1017,4 hPa 0,0 l/m 0,0 km/h (0 Bft) W 272 0 min 0,000 mm 0,0 UV-I 0 W/m -4,0 C -2,3 C 0,0 km/h (0 Bft)
18.02.2016 23:45 -2,3 C 88 % 1017,4 hPa 0,0 l/m 0,0 km/h (0 Bft) W 272 0 min 0,000 mm 0,0 UV-I 0 W/m -4,0 C -2,3 C 0,0 km/h (0 Bft)
18.02.2016 23:50 -2,3 C 88 % 1017,5 hPa 0,0 l/m 0,0 km/h (0 Bft) W 272 0 min 0,000 mm 0,0 UV-I 0 W/m -4,0 C -2,3 C 0,0 km/h (0 Bft)
18.02.2016 23:55 -2,3 C 89 % 1017,5 hPa 0,0 l/m 0,0 km/h (0 Bft) W 272 0 min 0,000 mm 0,0 UV-I 0 W/m -3,9 C -2,3 C 0,0 km/h (0 Bft)
_ Min-Zeit 23:20 16:00 03:20 - 00:00 - - - - - - 22:35 23:20 00:00
Minimum _ -2,3 C 60 % 1014,9 hPa - 0,0 km/h (0 Bft) - - - - - - -4,2 C -2,3 C 0,0 km/h (0 Bft)
_ Max-Zeit 16:40 06:30 23:50 00:00 12:55 - - 15:50 13:05 12:30 12:30 06:30 16:40 12:55
Maximum _ 4,1 C 89 % 1017,5 hPa 0,0 l/m 5,5 km/h
S-SO (1 Bft)
- - 5 min 0,076 mm 1,0 UV-I 240 W/m -0,8 C 4,1 C 14,5 km/h
SO (3 Bft)
Durchschnitt _ 1,1 C 79 % 1015,9 hPa #0,0 l/m 0,5 km/h (0 Bft) S-SO - #1:00 h #0,381 mm 0,7 UV-I 98 W/m -2,2 C 1,1 C 2,9 km/h (1 Bft)